Flag for Micronesia Weather past 2 weeks in Colonia, Yap, Micronesia

Now
80 °F

Overcast.


Feels Like: 85 °F
Forecast: 79 / 90 °F
Wind: 8 mph from Southwest

Location: Yap Island

Current Time: Aug 1, 2014 at 7:52:11 AM

Latest Report: Aug 1, 2014 at 6:50 AM


Visibility: 12 mi

Pressure: 29.80 "Hg

Humidity: 84%

Dew point: 75 °F

Location of ColoniaLocation

Historic Weather in Colonia — Graph

°F

Colonia temperature yesterday

Maximum temperature yesterday: 87 °F (at 12:50 PM)
Minimum temperature yesterday: 81 °F (at 12:53 AM)
Average temperature yesterday: 83 °F

Past Weeks' High & Low Weather Summary

 TemperatureHumidityPressure
High97 °F (Jul 19, 6:57 AM)94% (Jul 23, 8:54 PM)29.88 "Hg (Jul 23, 8:54 PM)
Low76 °F (Jul 23, 8:54 PM)63% (Jul 20, 11:51 AM)29.66 "Hg (Jul 25, 4:51 PM)
Average82 °F82%29.78 "Hg
* Reported Jul 17 6:54 AM — Aug 1 6:50 AM, Colonia, Weather by CustomWeather, © 2014

Note: Actual official high and low records may vary slightly from our data, if they occured in-between our weather recording intervals... More about our weather records

Advertising

Colonia weather history for previous 24 hours

 ConditionsComfort  
Time TempWeatherWind HumidityBarometerVisibility
6:50 AM
Aug 1
80 °FOvercast.8 mph84%29.80 "Hg12 mi
5:50 AM81 °FOvercast.9 mph81%29.81 "Hg12 mi
4:53 AM82 °FMostly cloudy.8 mph87%29.80 "Hg12 mi
3:50 AM81 °FMostly cloudy.8 mph85%29.80 "Hg12 mi
2:50 AM80 °FMostly cloudy.8 mph89%29.81 "Hg12 mi
1:50 AM83 °FMostly cloudy.8 mph82%29.83 "Hg12 mi
12:56 AM82 °FMostly cloudy.7 mph83%29.82 "Hg12 mi
11:54 PM
Jul 31
82 °FMostly cloudy.8 mph83%29.82 "Hg12 mi
10:50 PM82 °FMostly cloudy.7 mph84%29.83 "Hg12 mi
9:56 PM83 °FMostly cloudy.6 mph83%29.83 "Hg12 mi
8:51 PM83 °FMostly cloudy.6 mph83%29.83 "Hg12 mi
7:51 PM83 °FMostly cloudy.6 mph81%29.83 "Hg12 mi
6:52 PM83 °FMore clouds than sun.6 mph81%29.80 "Hg12 mi
5:51 PM83 °FMostly cloudy.6 mph81%29.81 "Hg12 mi
4:50 PM84 °FMore clouds than sun.5 mph80%29.80 "Hg12 mi
3:50 PM86 °FMore clouds than sun.10 mph77%29.82 "Hg12 mi
2:50 PM87 °FMore clouds than sun.8 mph74%29.83 "Hg12 mi
1:50 PM87 °FMostly cloudy.10 mph75%29.83 "Hg12 mi
12:50 PM87 °FCloudy.9 mph75%29.83 "Hg12 mi
11:50 AM86 °FCloudy.9 mph75%29.84 "Hg12 mi
10:50 AM85 °FCloudy.8 mph79%29.85 "Hg12 mi
9:56 AM84 °FCloudy.8 mph80%29.85 "Hg12 mi
8:50 AM83 °FCloudy.8 mph83%29.85 "Hg12 mi
7:52 AM82 °FCloudy.8 mph85%29.85 "Hg12 mi
Weather by CustomWeather, © 2014

See weather overviewHow to use our weather pages